Tracking 31027 objects as of 19-Jul-2025
HD Live streaming from Space Station
objects crossing your sky now

STARLINK-1496

Track STARLINK-1496 now!
10-day predictions
STARLINK-1496 is classified as:


NORAD ID: 45780
Int'l Code: 2020-038BC
Perigee: 553.7 km
Apogee: 555.1 km
Inclination: 53.1 °
Period: 95.6 minutes
Semi major axis: 6925 km
RCS: Unknown
Launch date: June 13, 2020
Source: United States (US)
Launch site: AIR FORCE EASTERN TEST RANGE (AFETR)
Your satellite tracking list
STARLINK-30103
Track 1 satellite(s)




NASA's NSSDC Master Catalog

Two Line Element Set (TLE):
1 45780U 20038BC  25199.61372419  .00001879  00000-0  14502-3 0  9996
2 45780  53.0548 167.4281 0001003  85.5715 274.5389 15.06388579281466
Source of the keplerian elements: AFSPC